Tracking 35331 objects as of 15-Sep-2026
HD Live streaming from Space Station
objects crossing your sky now

GALILEO-FM4

Track GALILEO-FM4 now!
GALILEO-FM4 is classified as:


NORAD ID: 38858
Int'l Code: 2012-055B
Launch date: October 12, 2012
Source: European Space Agency (ESA)
Launch site: FRENCH GUIANA (FRGUI)

GALILEO-FM4 is one of the first four Galileo satellites which are part of system's in-orbit validation, or IOV, phase.
Your satellite tracking list
Your tracking list is empty




NASA's NSSDC Master Catalog

Two Line Element Set (TLE):
1 38858U 12055B   25060.77336331  .00000028  00000-0  00000-0 0  9991
2 38858  55.5405 115.2181 0002939 278.1775  81.8829  1.64591902  5353
Source of the keplerian elements: AFSPC